{"data":{"norad_id":60423,"intl_designator":"2024-143B","name":"ASBM-2","alt_names":[],"object_type":"PAYLOAD","status":"ACTIVE","operator":null,"country":"NOR","launch_date":"2024-08-12","launch_site_code":"AFWTR","launch_vehicle":null,"mission":null,"orbit_class":"UNKNOWN","rcs_meters":null,"size_class":null,"mass_kg":null,"dimensions":null,"purposes":[],"wikipedia_slug":null,"has_3d_model":false,"image_url":null,"decayed_at":null,"tle_current":{"epoch":"2026-05-23T13:39:08.439552Z","epoch_age_seconds":208914,"freshness":"STALE","line1":"1 60423U 24143B   26143.56884768 -.00000069  00000+0  00000+0 0  9991","line2":"2 60423  62.8072  46.5193 5596832 269.3265  29.7887  1.50428815 11233","mean_motion":1.50428815,"eccentricity":0.5596832,"inclination_deg":62.8072,"raan_deg":46.5193,"arg_perigee_deg":269.3265,"mean_anomaly_deg":29.7887,"bstar":0,"rev_number":1123,"period_min":957.26340728005,"perigee_km":7788.9232560888,"apogee_km":43804.199614931,"semimajor_km":32174.69843551,"source":"CELESTRAK","updated_at":"2026-05-25T13:38:02.074422Z"}}}